Location: Lake of the Woods (North-East)
(49.6672°N, 94.8656°W)
Time: 14:12:21
(UTC-05:00)

ISS - All Passes

Search period start: 29 May 2016 00:00
Search period end: 08 June 2016 00:00
Orbit: 402 x 404 km, 51.6° (Epoch: 29 May)

Date Brightness Start Highest point End Pass type
(mag) Time Alt. Az. Time Alt. Az. Time Alt. Az.
29 May - 01:08:12 10° WNW 01:11:27 58° N 01:14:42 10° E visible
29 May - 02:44:44 10° WNW 02:48:00 72° SSW 02:51:15 10° ESE visible
29 May - 04:21:49 10° W 04:24:01 17° SW 04:26:13 10° S visible
29 May - 21:04:09 10° S 21:06:07 15° SE 21:08:04 10° ESE daylight
29 May - 22:38:50 10° WSW 22:42:04 65° SSE 22:45:19 10° ENE visible
30 May - 00:15:21 10° W 00:18:35 59° N 00:21:50 10° ENE visible
30 May - 01:51:55 10° WNW 01:55:12 83° NNE 01:58:28 10° ESE visible
30 May - 03:28:36 10° W 03:31:25 27° SW 03:34:14 10° SSE visible
30 May - 21:46:13 10° SW 21:49:20 42° SSE 21:52:27 10° ENE daylight
30 May - 23:22:27 10° W 23:25:43 67° N 23:28:59 10° ENE visible
31 May - 00:59:06 10° WNW 01:02:22 67° N 01:05:37 10° E visible
31 May - 02:35:37 10° WNW 02:38:45 42° SSW 02:41:50 10° SE visible
31 May - 20:53:49 10° SSW 20:56:39 27° SE 20:59:29 10° E daylight
31 May - 22:29:35 10° WSW 22:32:51 83° NNW 22:36:08 10° ENE visible
01 Jun - 00:06:14 10° WNW 00:09:29 59° N 00:12:43 10° E visible
01 Jun - 01:42:44 10° WNW 01:45:59 64° SSW 01:49:13 10° ESE visible
01 Jun - 03:20:01 10° WSW 03:21:57 15° SW 03:23:51 10° S visible
01 Jun - 20:01:46 10° S 20:04:01 17° SE 20:06:14 10° E daylight
01 Jun - 21:36:46 10° WSW 21:40:01 73° SSE 21:43:18 10° ENE daylight
01 Jun - 23:13:19 10° W 23:16:34 58° N 23:19:48 10° E visible
02 Jun - 00:49:53 10° WNW 00:53:10 90° NNE 00:56:26 10° ESE visible
02 Jun - 02:26:39 10° W 02:29:19 23° SW 02:32:00 10° SSE visible
02 Jun - 19:10:54 10° SE 19:11:26 10° SE 19:11:58 10° SE daylight
02 Jun - 20:44:04 10° SW 20:47:14 48° SSE 20:50:25 10° ENE daylight
02 Jun - 22:20:24 10° W 22:23:40 64° N 22:26:55 10° ENE visible
02 Jun - 23:57:01 10° WNW 00:00:17 71° NNE 00:03:33 10° E visible
03 Jun - 01:33:34 10° W 01:36:38 37° SSW 01:39:39 10° SE visible
03 Jun - 19:51:33 10° SSW 19:54:29 31° SSE 19:57:26 10° E daylight
03 Jun - 21:27:29 10° W 21:30:45 77° NNW 21:34:02 10° ENE daylight
03 Jun - 23:04:08 10° WNW 23:07:23 61° N 23:10:38 10° E visible
04 Jun - 00:40:38 10° WNW 00:43:51 57° SSW 00:47:04 10° SE visible
04 Jun - 02:18:13 10° WSW 02:19:45 13° SW 02:21:16 10° SSW visible
04 Jun - 18:59:21 10° S 19:01:47 20° SE 19:04:15 10° E daylight
04 Jun - 20:34:36 10° WSW 20:37:52 80° SSE 20:41:09 10° ENE daylight
04 Jun - 22:11:11 10° W 22:14:26 58° N 22:17:41 10° E visible
04 Jun - 23:47:44 10° WNW 23:51:01 83° SSW 23:54:16 10° ESE visible
05 Jun - 01:24:35 10° W 01:27:07 21° SW 01:29:38 10° SSE visible
05 Jun - 18:07:48 10° SSE 18:09:09 12° SE 18:10:30 10° ESE daylight
05 Jun - 19:41:49 10° SW 19:45:01 55° SSE 19:48:14 10° ENE daylight
05 Jun - 21:18:14 10° W 21:21:29 62° N 21:24:44 10° ENE daylight
05 Jun - 22:54:50 10° WNW 22:58:07 75° NNE 23:01:22 10° E visible
06 Jun - 00:31:25 10° W 00:34:24 32° SSW 00:37:21 10° SSE visible
06 Jun - 18:49:12 10° SW 18:52:13 35° SSE 18:55:15 10° E daylight
06 Jun - 20:25:16 10° W 20:28:32 72° NNW 20:31:49 10° ENE daylight
06 Jun - 22:01:54 10° WNW 22:05:10 63° N 22:08:25 10° E visible
06 Jun - 23:38:24 10° WNW 23:41:36 51° SSW 23:44:46 10° SE visible
07 Jun - 01:16:29 10° WSW 01:17:25 11° SW 01:18:22 10° SSW visible
07 Jun - 17:56:50 10° SSW 17:59:28 22° SE 18:02:06 10° E daylight
07 Jun - 19:32:19 10° WSW 19:35:36 87° SSE 19:38:53 10° ENE daylight
07 Jun - 21:08:57 10° W 21:12:11 58° N 21:15:25 10° E daylight
07 Jun - 22:45:27 10° WNW 22:48:45 76° SSW 22:52:00 10° ESE visible
